This is the latest recevied weather packets stored in our database for station/object N5ATR. If no packets are shown the sender has not sent any weather packets the latest 1 day(s).
| Time | Temp. | Humidity | Pressure | Rain* | Wind** | Luminosity | Snow |
|---|---|---|---|---|---|---|---|
| 1778063474 | 3.33° C | 83% | 1012.2 hPa | 0 mm | - | 0 W/m² | - |
| 1778062263 | 3.89° C | 82% | 1012.2 hPa | 0 mm | - | 0 W/m² | - |
| 1778061659 | 3.89° C | 82% | 1012.3 hPa | 0 mm | - | 0 W/m² | - |
| 1778060449 | 3.89° C | 82% | 1012.3 hPa | 0 mm | - | 0 W/m² | - |
| 1778059844 | 3.89° C | 86% | 1012.3 hPa | 0 mm | - | 0 W/m² | - |
| 1778059542 | 3.33° C | 87% | 1012.4 hPa | 0 mm | - | 0 W/m² | - |
| 1778058937 | 3.89° C | 85% | 1012.2 hPa | 0 mm | - | 0 W/m² | - |
| 1778058634 | 3.89° C | 83% | 1012.2 hPa | 0 mm | - | 0 W/m² | - |
| 1778058332 | 3.89° C | 82% | 1012.5 hPa | 0 mm | - | 0 W/m² | - |
| 1778058028 | 3.89° C | 81% | 1012.3 hPa | 0 mm | - | 0 W/m² | - |
| 1778057725 | 3.89° C | 78% | 1012.5 hPa | 0 mm | - | 0 W/m² | - |
| 1778057421 | 3.89° C | 80% | 1012.5 hPa | 0 mm | - | 0 W/m² | - |
| 1778056814 | 3.33° C | 84% | 1012.4 hPa | 0 mm | - | 0 W/m² | - |
| 1778056512 | 3.33° C | 84% | 1012.5 hPa | 0 mm | - | 0 W/m² | - |
| 1778055906 | 3.89° C | 84% | 1012.7 hPa | 0 mm | - | 0 W/m² | - |
| 1778055601 | 3.89° C | 83% | 1012.7 hPa | 0 mm | - | 0 W/m² | - |
| 1778055300 | 4.44° C | 79% | 1012.8 hPa | 0 mm | - | 0 W/m² | - |
| 1778054997 | 4.44° C | 79% | 1012.8 hPa | 0 mm | - | 0 W/m² | - |
| 1778054694 | 4.44° C | 79% | 1012.9 hPa | 0 mm | - | 0 W/m² | - |
| 1778054391 | 4.44° C | 80% | 1012.9 hPa | 0 mm | - | 0 W/m² | - |
| 1778054089 | 5° C | 78% | 1013.2 hPa | 0 mm | - | 0 W/m² | - |
| 1778053785 | 5° C | 77% | 1013 hPa | 0 mm | - | 0 W/m² | - |
| 1778052575 | 5.56° C | 80% | 1013 hPa | 0 mm | - | 0 W/m² | - |
| 1778052272 | 5.56° C | 80% | 1012.9 hPa | 0 mm | - | 0 W/m² | - |
| 1778051970 | 5.56° C | 80% | 1013 hPa | 0 mm | - | 0 W/m² | - |
* Rain latest hour (hover to see other rain measurements)
** Current wind speed in m/s (hover to see current wind gust speed)